Location: New Greens
(51.7702°N, 0.3379°W)
Time: 05:54:21
(UTC+00:00)

Tiangong 2 - Visible Passes

Search period start: 21 November 2018 00:00
Search period end: 01 December 2018 00:00
Orbit: 382 x 393 km, 42.8° (Epoch: 20 November)

Date Brightness Start Highest point End Pass type
(mag) Time Alt. Az. Time Alt. Az. Time Alt. Az.
26 Nov 4.0 06:41:48 10° SSW 06:43:23 13° SSE 06:44:59 10° SE visible
27 Nov 4.2 05:44:33 10° SSE 05:45:02 10° SSE 05:45:31 10° SSE visible
28 Nov 3.8 06:20:40 10° SSW 06:22:39 15° S 06:24:39 10° SE visible
29 Nov 3.8 05:23:21 12° S 05:24:16 13° SSE 05:25:52 10° SE visible
29 Nov 3.7 06:58:12 10° SW 07:00:20 17° S 07:02:28 10° SE visible
30 Nov 3.5 05:59:54 11° SW 06:01:54 17° S 06:04:03 10° SE visible
